Location: Newark
(35.2672°N, 80.7344°W)
Time: 19:55:13
(UTC+00:00)

Vanguard 2 Rocket - Pass Details

Date: 18 January 2020
Orbit: 554 x 3326 km, 32.9° (Epoch: 16 February)

Event Time Altitude Azimuth Distance (km) Brightness Sun altitude
Rises 20:52:38 0° 267° (W) 6,524 12.1 16.9°
Reaches altitude 10° 21:01:20 10° 242° (WSW) 5,998 13.2 15.6°
Maximum altitude 21:07:31 12° 223° (SW) 5,991 13.7 14.6°
Drops below altitude 10° 21:14:01 10° 204° (SSW) 6,277 12.4 13.6°
Sets 21:24:05 0° 179° (S) 7,144 12.0 11.9°
